When you browse on this site, cookies collect data to enhance your experience and personalize the content and advertising you see.
Visit our Privacy Policy to learn more. By continuing to use the site, you agree to this use of cookies and data.
  • în România
  • Lista ţărilor
  • Pe 7 zile
  • Temperatura apei
  • Meteo pe hartă
  • Widget-uri
  • user-avatar
    Intrare

    Meteo pe oră la Cordoba

    Astăzi, 22 Noiembrie, Vineri

    Timp Temperatura Precipitaţii Vânt Presiune Umiditate
    00:00 +14°C° 0.4 mm 2 m/s 746 mmHg 96%
    01:00 +14°C° 0.2 mm 2 m/s 746 mmHg 96%
    02:00 +14°C° 0.2 mm 2 m/s 745 mmHg 95%
    03:00 +14°C° 0.2 mm 2 m/s 745 mmHg 94%
    04:00 +14°C° 0.1 mm 2 m/s 745 mmHg 95%
    05:00 +14°C° 0.1 mm 2 m/s 744 mmHg 95%
    06:00 +14°C° 0.1 mm 2 m/s 744 mmHg 95%
    07:00 +14°C° 0.3 mm 3 m/s 744 mmHg 94%
    08:00 +14°C° 0.3 mm 4 m/s 743 mmHg 93%
    09:00 +15°C° 0.3 mm 5 m/s 743 mmHg 93%
    10:00 +15°C° 0.2 mm 6 m/s 742 mmHg 91%
    11:00 +16°C° 0.2 mm 6 m/s 742 mmHg 90%
    12:00 +16°C° 0.2 mm 7 m/s 741 mmHg 88%
    13:00 +16°C° 6.2 mm 8 m/s 740 mmHg 90%
    14:00 +16°C° 6.2 mm 8 m/s 739 mmHg 92%
    15:00 +16°C° 6.2 mm 9 m/s 738 mmHg 93%
    16:00 +16°C° 3.3 mm 8 m/s 738 mmHg 91%
    17:00 +17°C° 3.3 mm 8 m/s 738 mmHg 88%
    18:00 +17°C° 3.3 mm 7 m/s 738 mmHg 85%
    19:00 +16°C° 0.1 mm 6 m/s 739 mmHg 85%
    20:00 +14°C° 0.1 mm 5 m/s 740 mmHg 85%
    21:00 +13°C° 0.1 mm 4 m/s 741 mmHg 84%
    22:00 +13°C° 0.1 mm 5 m/s 741 mmHg 84%
    23:00 +13°C° 0.1 mm 6 m/s 741 mmHg 84%

    Mâine, 23 Noiembrie, Sâmbătă

    Timp Temperatura Precipitaţii Vânt Presiune Umiditate
    00:00 +11°C° 0.1 mm 6 m/s 741 mmHg 84%
    01:00 +11°C° 0.1 mm 6 m/s 742 mmHg 84%
    02:00 +11°C° 0.1 mm 6 m/s 742 mmHg 84%
    03:00 +11°C° 0.1 mm 6 m/s 742 mmHg 83%
    04:00 +10°C° 0.3 mm 6 m/s 743 mmHg 83%
    05:00 +10°C° 0.3 mm 5 m/s 743 mmHg 82%
    06:00 +10°C° 0.3 mm 5 m/s 744 mmHg 82%
    07:00 +10°C° 0 mm 5 m/s 745 mmHg 79%
    08:00 +12°C° 0 mm 5 m/s 745 mmHg 77%
    09:00 +12°C° 0 mm 5 m/s 746 mmHg 75%
    10:00 +13°C° 0 mm 6 m/s 746 mmHg 69%
    11:00 +14°C° 0 mm 6 m/s 746 mmHg 64%
    12:00 +15°C° 0 mm 6 m/s 747 mmHg 58%
    13:00 +15°C° 0 mm 6 m/s 747 mmHg 56%
    14:00 +15°C° 0 mm 6 m/s 747 mmHg 55%
    15:00 +15°C° 0 mm 5 m/s 747 mmHg 53%
    16:00 +14°C° 0 mm 4 m/s 748 mmHg 59%
    17:00 +13°C° 0 mm 3 m/s 749 mmHg 66%
    18:00 +12°C° 0 mm 2 m/s 749 mmHg 72%
    19:00 +12°C° 0 mm 2 m/s 750 mmHg 75%
    20:00 +10°C° 0 mm 2 m/s 751 mmHg 78%
    21:00 +10°C° 0 mm 2 m/s 751 mmHg 81%
    22:00 +11°C° 0 mm 1 m/s 751 mmHg 83%
    23:00 +10°C° 0 mm 1 m/s 752 mmHg 85%

    Poimâine, 24 Noiembrie, Duminică

    Timp Temperatura Precipitaţii Vânt Presiune Umiditate
    00:00 +10°C° 0 mm 1 m/s 752 mmHg 87%
    01:00 +9°C° 0 mm 1 m/s 752 mmHg 88%
    02:00 +9°C° 0 mm 1 m/s 752 mmHg 89%
    03:00 +9°C° 0 mm 1 m/s 752 mmHg 91%
    04:00 +9°C° 0 mm 1 m/s 753 mmHg 91%
    05:00 +8°C° 0 mm 1 m/s 753 mmHg 92%
    06:00 +8°C° 0 mm 1 m/s 753 mmHg 92%
    07:00 +9°C° 0 mm 1 m/s 754 mmHg 88%
    08:00 +10°C° 0 mm 1 m/s 754 mmHg 85%
    09:00 +11°C° 0 mm 1 m/s 755 mmHg 81%
    10:00 +12°C° 0 mm 1 m/s 755 mmHg 75%
    11:00 +14°C° 0 mm 1 m/s 754 mmHg 70%
    12:00 +15°C° 0 mm 2 m/s 754 mmHg 64%
    13:00 +15°C° 0 mm 2 m/s 754 mmHg 64%
    14:00 +16°C° 0 mm 2 m/s 754 mmHg 63%
    15:00 +16°C° 0 mm 2 m/s 753 mmHg 63%
    16:00 +15°C° 0 mm 1 m/s 754 mmHg 67%
    17:00 +15°C° 0 mm 1 m/s 754 mmHg 70%
    18:00 +14°C° 0 mm 1 m/s 755 mmHg 74%
    19:00 +13°C° 0 mm 1 m/s 755 mmHg 77%
    20:00 +11°C° 0 mm 0 m/s 755 mmHg 80%
    21:00 +11°C° 0 mm 0 m/s 756 mmHg 83%
    22:00 +10°C° 0 mm 0 m/s 756 mmHg 85%
    23:00 +10°C° 0 mm 0 m/s 756 mmHg 86%

    25 Noiembrie, Luni

    Timp Temperatura Precipitaţii Vânt Presiune Umiditate
    00:00 +10°C° 0 mm 0 m/s 756 mmHg 88%
    01:00 +10°C° 0 mm 0 m/s 756 mmHg 89%
    02:00 +10°C° 0 mm 0 m/s 756 mmHg 90%
    03:00 +9°C° 0 mm 0 m/s 756 mmHg 91%
    04:00 +9°C° 0 mm 0 m/s 756 mmHg 91%
    05:00 +9°C° 0 mm 0 m/s 756 mmHg 91%
    06:00 +10°C° 0 mm 1 m/s 756 mmHg 91%
    07:00 +11°C° 0 mm 1 m/s 756 mmHg 88%
    08:00 +12°C° 0 mm 1 m/s 757 mmHg 85%
    09:00 +13°C° 0 mm 1 m/s 757 mmHg 82%
    10:00 +14°C° 0 mm 1 m/s 757 mmHg 76%
    11:00 +16°C° 0 mm 1 m/s 757 mmHg 71%
    12:00 +18°C° 0 mm 1 m/s 756 mmHg 66%
    13:00 +19°C° 0 mm 1 m/s 756 mmHg 65%
    14:00 +19°C° 0 mm 1 m/s 756 mmHg 64%
    15:00 +20°C° 0 mm 1 m/s 755 mmHg 63%
    16:00 +18°C° 0 mm 1 m/s 755 mmHg 69%
    17:00 +16°C° 0 mm 1 m/s 755 mmHg 75%
    18:00 +15°C° 0 mm 1 m/s 755 mmHg 81%
    19:00 +14°C° 0 mm 1 m/s 756 mmHg 82%
    20:00 +13°C° 0 mm 0 m/s 756 mmHg 83%
    21:00 +13°C° 0 mm 0 m/s 756 mmHg 84%
    22:00 +14°C° 0 mm 1 m/s 756 mmHg 85%
    23:00 +13°C° 0 mm 1 m/s 756 mmHg 86%

    26 Noiembrie, Marţi

    Timp Temperatura Precipitaţii Vânt Presiune Umiditate
    00:00 +13°C° 0 mm 1 m/s 755 mmHg 87%
    01:00 +13°C° 0 mm 1 m/s 755 mmHg 88%
    02:00 +13°C° 0 mm 1 m/s 755 mmHg 88%
    03:00 +13°C° 0 mm 1 m/s 754 mmHg 89%
    04:00 +13°C° 0 mm 1 m/s 754 mmHg 89%
    05:00 +12°C° 0 mm 1 m/s 754 mmHg 89%
    06:00 +12°C° 0 mm 1 m/s 754 mmHg 89%
    07:00 +13°C° 0 mm 1 m/s 754 mmHg 86%
    08:00 +14°C° 0 mm 1 m/s 754 mmHg 82%
    09:00 +14°C° 0 mm 0 m/s 754 mmHg 78%
    10:00 +18°C° 0 mm 1 m/s 754 mmHg 73%
    11:00 +19°C° 0 mm 1 m/s 754 mmHg 68%
    12:00 +20°C° 0 mm 1 m/s 754 mmHg 63%
    13:00 +21°C° 0 mm 1 m/s 753 mmHg 63%
    14:00 +20°C° 0 mm 2 m/s 753 mmHg 62%
    15:00 +20°C° 0 mm 2 m/s 752 mmHg 62%
    16:00 +19°C° 0 mm 2 m/s 752 mmHg 68%
    17:00 +18°C° 0 mm 2 m/s 753 mmHg 75%
    18:00 +16°C° 0 mm 1 m/s 753 mmHg 81%
    19:00 +16°C° 0 mm 1 m/s 753 mmHg 84%
    20:00 +15°C° 0 mm 1 m/s 753 mmHg 86%
    21:00 +15°C° 0 mm 1 m/s 753 mmHg 88%
    22:00 +15°C° 0 mm 1 m/s 753 mmHg 89%
    23:00 +14°C° 0 mm 1 m/s 753 mmHg 91%

    27 Noiembrie, Miercuri

    Timp Temperatura Precipitaţii Vânt Presiune Umiditate
    00:00 +14°C° 0 mm 1 m/s 753 mmHg 92%
    01:00 +14°C° 0 mm 1 m/s 753 mmHg 93%
    02:00 +14°C° 0 mm 1 m/s 753 mmHg 93%
    03:00 +15°C° 0 mm 1 m/s 753 mmHg 94%
    04:00 +15°C° 0 mm 1 m/s 752 mmHg 94%
    05:00 +15°C° 0 mm 1 m/s 752 mmHg 94%
    06:00 +15°C° 0 mm 1 m/s 752 mmHg 94%
    07:00 +15°C° 0 mm 1 m/s 753 mmHg 92%
    08:00 +16°C° 0 mm 1 m/s 753 mmHg 91%
    09:00 +16°C° 0 mm 1 m/s 753 mmHg 89%
    10:00 +17°C° 0 mm 2 m/s 753 mmHg 87%
    11:00 +17°C° 0 mm 2 m/s 753 mmHg 86%
    12:00 +17°C° 0 mm 2 m/s 752 mmHg 85%
    13:00 +18°C° 0 mm 2 m/s 752 mmHg 85%
    14:00 +18°C° 0 mm 2 m/s 752 mmHg 85%
    15:00 +18°C° 0 mm 2 m/s 752 mmHg 85%
    16:00 +18°C° 0.1 mm 2 m/s 752 mmHg 86%
    17:00 +17°C° 0.1 mm 2 m/s 752 mmHg 88%
    18:00 +16°C° 0.1 mm 2 m/s 753 mmHg 90%
    19:00 +16°C° 0 mm 2 m/s 753 mmHg 88%
    20:00 +15°C° 0 mm 2 m/s 754 mmHg 87%
    21:00 +15°C° 0 mm 2 m/s 754 mmHg 86%
    22:00 +14°C° 0 mm 1 m/s 754 mmHg 85%
    23:00 +14°C° 0 mm 1 m/s 754 mmHg 85%
    Arată mai mult